Weather in Petrovskoe

Russia / Tambov Oblast     52°37′55″N   40°15′16″E
temp.,
°C
wind,
m/s
gust,
m/s
humid.,
%
clouds,
%
prec.,
mm/h
press.,
hPa
HPBL,
m
7 may, fri
fri700:00+13ssw3873100 0.3 1009216
03:00+10nnw4794100 0.7 1010360
06:00+8nw5893100 4.0 1011599
09:00+7n3586100 7.3 1013430
12:00+11wnw3472100 0.1 10141018
15:00+14wnw244664 0.3 10142152
18:00+14nw235115 0.0 1015454
21:00+10se225723 0.0 101613
8 may, sat
sat800:00+7sse49798 0.0 1016163
03:00+7sse51180100 0.0 1016234
06:00+8sse61380100 0.0 1014383
09:00+12sse81367100 0.0 1013774
12:00+15sse101459100 0.0 10101288
15:00+14sse81671100 0.1 10081120
18:00+12s71495100 4.8 1007777
21:00+12ssw61294100 5.1 1007721
9 may, sun
sun900:00+11wsw4992100 1.4 1007489
03:00+7wsw51090100 2.1 1008613
06:00+5wsw6987100 0.0 1009782
09:00+6wsw5789100 0.1 1011719
12:00+7wnw6786100 0.1 1012821
15:00+6nw6988100 0.1 1015726
18:00+5nnw71292100 0.0 1017841
21:00+6n6148598 0.1 1019715
10 may, mon
mon1000:00+5nnw5149496 0.0 1020689
03:00+5n61590100 0.0 1021761
06:00+5n81687100 0.0 1022759
09:00+7nne91580100 0.0 1022840
12:00+7nne81685100 0.6 1023615
15:00+12nne8147396 0.6 1023844
18:00+12nne71377100 0.0 1023752
21:00+10nne81785100 0.0 1024542
11 may, tue
tue1100:00+10nne81690100 0.0 1023460
03:00+9nne71693100 0.0 1023422
06:00+9ne81790100 0.0 1024473
09:00+13ene71478100 0.0 1024657
12:00+18ene686799 0.0 10241102
15:00+13s459085 0.9 1025266
18:00+15e138112 0.6 1025404
21:00+12n2295100 0.8 102425